TimeEST,TemperatureF,Dew PointF,Humidity,Sea Level PressureIn,VisibilityMPH,Wind Direction,Wind SpeedMPH,Gust SpeedMPH,PrecipitationIn,Events,Conditions,WindDirDegrees,DateUTC
12:15 AM,-5.8,-11.2,77,30.18,10.0,SW,11.5,-,N/A,,Clear,220,2014-01-29 05:15:00
12:35 AM,-5.8,-13.0,71,30.17,10.0,SW,9.2,-,N/A,,Clear,220,2014-01-29 05:35:00
12:55 AM,-5.8,-11.2,77,30.17,10.0,SW,9.2,-,N/A,,Clear,220,2014-01-29 05:55:00
1:15 AM,-5.8,-13.0,71,30.16,10.0,SW,9.2,-,N/A,,Clear,220,2014-01-29 06:15:00
1:35 AM,-5.8,-11.2,77,30.16,10.0,SW,10.4,-,N/A,,Clear,220,2014-01-29 06:35:00
1:55 AM,-5.8,-11.2,77,30.15,10.0,SW,12.7,-,N/A,,Clear,220,2014-01-29 06:55:00
2:15 AM,-5.8,-11.2,77,30.15,10.0,SW,11.5,-,N/A,,Clear,220,2014-01-29 07:15:00
2:35 AM,-5.8,-11.2,77,30.14,10.0,SW,13.8,-,N/A,,Clear,220,2014-01-29 07:35:00
2:55 AM,-4.0,-9.4,78,30.15,10.0,SW,12.7,-,N/A,,Clear,220,2014-01-29 07:55:00
3:15 AM,-4.0,-9.4,78,30.15,10.0,SW,11.5,-,N/A,,Clear,220,2014-01-29 08:15:00
3:35 AM,-4.0,-9.4,78,30.15,10.0,SW,11.5,-,N/A,,Clear,220,2014-01-29 08:35:00
3:55 AM,-4.0,-9.4,78,30.14,10.0,SW,11.5,-,N/A,,Clear,220,2014-01-29 08:55:00
4:15 AM,-4.0,-9.4,78,30.14,10.0,SW,10.4,-,N/A,,Clear,220,2014-01-29 09:15:00
4:35 AM,-4.0,-9.4,78,30.13,10.0,SW,9.2,-,N/A,,Clear,230,2014-01-29 09:35:00
4:55 AM,-2.2,-9.4,71,30.13,10.0,SW,9.2,-,N/A,,Clear,230,2014-01-29 09:55:00
5:15 AM,-2.2,-9.4,71,30.12,10.0,SW,9.2,-,N/A,,Clear,220,2014-01-29 10:15:00
5:35 AM,-4.0,-9.4,78,30.12,10.0,SW,8.1,-,N/A,,Clear,220,2014-01-29 10:35:00
5:55 AM,-2.2,-9.4,71,30.12,10.0,SW,10.4,-,N/A,,Clear,220,2014-01-29 10:55:00
6:15 AM,-2.2,-9.4,71,30.12,10.0,SW,10.4,-,N/A,,Clear,220,2014-01-29 11:15:00
6:35 AM,-2.2,-9.4,71,30.12,10.0,SW,10.4,-,N/A,,Clear,220,2014-01-29 11:35:00
6:55 AM,-2.2,-9.4,71,30.12,10.0,SW,10.4,-,N/A,,Clear,220,2014-01-29 11:55:00
7:15 AM,-2.2,-9.4,71,30.12,10.0,SW,10.4,-,N/A,,Clear,220,2014-01-29 12:15:00
7:35 AM,-2.2,-9.4,71,30.12,10.0,SW,10.4,-,N/A,,Clear,220,2014-01-29 12:35:00
7:55 AM,-2.2,-9.4,71,30.13,10.0,SW,10.4,-,N/A,,Clear,230,2014-01-29 12:55:00
8:15 AM,-0.4,-9.4,66,30.14,10.0,SW,10.4,-,N/A,,Clear,230,2014-01-29 13:15:00
8:35 AM,-0.4,-7.6,72,30.14,10.0,SW,10.4,-,N/A,,Clear,230,2014-01-29 13:35:00
8:55 AM,-0.4,-7.6,72,30.14,10.0,SW,11.5,-,N/A,,Clear,230,2014-01-29 13:55:00
9:15 AM,1.4,-7.6,66,30.14,10.0,SW,11.5,-,N/A,,Clear,230,2014-01-29 14:15:00
9:35 AM,3.2,-5.8,66,30.14,10.0,SW,11.5,-,N/A,,Clear,230,2014-01-29 14:35:00
9:55 AM,3.2,-5.8,66,30.15,10.0,WSW,9.2,-,N/A,,Clear,240,2014-01-29 14:55:00
10:15 AM,6.8,-5.8,56,30.15,10.0,WSW,15.0,21.9,N/A,,Clear,240,2014-01-29 15:15:00
10:35 AM,6.8,-4.0,61,30.15,10.0,WSW,15.0,-,N/A,,Clear,250,2014-01-29 15:35:00
10:54 AM,6.8,-4.0,61,30.15,10.0,WSW,15.0,-,N/A,,Clear,240,2014-01-29 15:54:00
11:15 AM,8.6,-4.0,57,30.16,10.0,West,15.0,-,N/A,,Clear,260,2014-01-29 16:15:00
11:34 AM,8.6,-2.2,62,30.16,10.0,WSW,15.0,21.9,N/A,,Clear,250,2014-01-29 16:34:00
11:55 AM,10.4,-2.2,57,30.17,7.0,WSW,15.0,23.0,N/A,,Clear,250,2014-01-29 16:55:00
12:15 PM,10.4,-2.2,57,30.16,10.0,West,16.1,23.0,N/A,,Clear,260,2014-01-29 17:15:00
12:34 PM,10.4,-2.2,57,30.15,7.0,West,18.4,26.5,N/A,,Clear,260,2014-01-29 17:34:00
12:55 PM,12.2,-2.2,53,30.14,10.0,WSW,18.4,23.0,N/A,,Clear,250,2014-01-29 17:55:00
1:15 PM,12.2,-2.2,53,30.13,10.0,WSW,15.0,21.9,N/A,,Clear,250,2014-01-29 18:15:00
1:34 PM,12.2,-2.2,53,30.13,10.0,WSW,10.4,20.7,N/A,,Clear,250,2014-01-29 18:34:00
1:55 PM,14.0,-2.2,49,30.14,10.0,WSW,12.7,-,N/A,,Clear,250,2014-01-29 18:55:00
2:15 PM,14.0,-2.2,49,30.14,10.0,WSW,16.1,20.7,N/A,,Clear,250,2014-01-29 19:15:00
2:34 PM,14.0,-2.2,49,30.13,10.0,WSW,13.8,20.7,N/A,,Clear,250,2014-01-29 19:34:00
2:55 PM,15.8,-2.2,45,30.14,10.0,WSW,13.8,-,N/A,,Clear,250,2014-01-29 19:55:00
3:15 PM,15.8,-0.4,49,30.13,10.0,WSW,13.8,-,N/A,,Clear,250,2014-01-29 20:15:00
3:34 PM,15.8,-0.4,49,30.14,10.0,SW,10.4,-,N/A,,Clear,230,2014-01-29 20:34:00
3:55 PM,15.8,-0.4,49,30.14,10.0,SW,13.8,-,N/A,,Clear,230,2014-01-29 20:55:00
4:15 PM,15.8,-0.4,49,30.15,10.0,SW,13.8,-,N/A,,Clear,220,2014-01-29 21:15:00
4:34 PM,15.8,-0.4,49,30.15,10.0,SW,16.1,-,N/A,,Clear,230,2014-01-29 21:34:00
4:55 PM,15.8,-0.4,49,30.15,10.0,SW,13.8,18.4,N/A,,Clear,230,2014-01-29 21:55:00
5:15 PM,15.8,-0.4,49,30.14,10.0,SW,13.8,-,N/A,,Clear,220,2014-01-29 22:15:00
5:34 PM,12.2,1.4,62,30.14,10.0,SSW,13.8,-,N/A,,Clear,210,2014-01-29 22:34:00
5:55 PM,12.2,-0.4,57,30.14,10.0,SW,10.4,-,N/A,,Clear,220,2014-01-29 22:55:00
6:14 PM,10.4,-0.4,62,30.15,10.0,SW,6.9,-,N/A,,Clear,220,2014-01-29 23:14:00
6:35 PM,10.4,-0.4,62,30.14,10.0,SSW,10.4,-,N/A,,Clear,210,2014-01-29 23:35:00
6:55 PM,10.4,-0.4,62,30.14,10.0,SSW,8.1,-,N/A,,Clear,200,2014-01-29 23:55:00
7:14 PM,10.4,-0.4,62,30.14,10.0,SSW,8.1,-,N/A,,Clear,200,2014-01-30 00:14:00
7:35 PM,8.6,-0.4,67,30.13,10.0,South,10.4,-,N/A,,Clear,190,2014-01-30 00:35:00
7:55 PM,10.4,1.4,67,30.13,10.0,SSW,10.4,-,N/A,,Clear,200,2014-01-30 00:55:00
8:14 PM,10.4,1.4,67,30.12,10.0,South,11.5,-,N/A,,Clear,190,2014-01-30 01:14:00
8:35 PM,10.4,1.4,67,30.12,10.0,South,10.4,-,N/A,,Clear,190,2014-01-30 01:35:00
8:55 PM,10.4,1.4,67,30.12,10.0,South,6.9,-,N/A,,Clear,190,2014-01-30 01:55:00
9:14 PM,8.6,-0.4,67,30.12,10.0,South,9.2,-,N/A,,Clear,190,2014-01-30 02:14:00
9:35 PM,10.4,-0.4,62,30.11,10.0,South,9.2,-,N/A,,Clear,180,2014-01-30 02:35:00
9:55 PM,10.4,1.4,67,30.11,10.0,South,9.2,-,N/A,,Clear,180,2014-01-30 02:55:00
10:14 PM,10.4,1.4,67,30.11,10.0,South,10.4,-,N/A,,Clear,190,2014-01-30 03:14:00
10:35 PM,10.4,1.4,67,30.10,10.0,South,10.4,-,N/A,,Clear,180,2014-01-30 03:35:00
10:55 PM,10.4,1.4,67,30.10,10.0,South,10.4,-,N/A,,Clear,180,2014-01-30 03:55:00
11:14 PM,12.2,1.4,62,30.09,10.0,South,12.7,-,N/A,,Clear,180,2014-01-30 04:14:00
11:35 PM,12.2,3.2,67,30.09,10.0,South,13.8,18.4,N/A,,Clear,190,2014-01-30 04:35:00
11:55 PM,12.2,3.2,67,30.10,10.0,SSW,12.7,-,N/A,,Clear,210,2014-01-30 04:55:00